Salem, Oregon, United States (97301)
Lat: 44.94N, Lon: 123.03W
Wx Zone: ORZ007
Local Info
Past Weather Observations for Thursday, January 22, 2015

NOTE: This archive is for the closest National Weather Service station to Salem. Information may differ from the station used for current weather conditions.

Click here for Long-term Archive

Time Weather Temperature Dewpoint Humidity Pressure Winds Precip Visibility
23:56
Overcast
45°F / 7°C 41°F / 5°C 87% 30.42 in
(1030 mb)
Calm - 9SM
22:56
Overcast
45°F / 7°C 41°F / 5°C 87% 30.39 in
(1029 mb)
Calm - 9SM
21:56
Clear
43°F / 6°C 39°F / 4°C 87% 30.39 in
(1029 mb)
SE 4.6 mph
(SE 7 kph)
- 9SM
20:56
Clear
45°F / 7°C 41°F / 5°C 87% 30.42 in
(1030 mb)
SW 5.8 mph
(SW 9 kph)
- 10SM
19:56
Partly Cloudy
46°F / 8°C 41°F / 5°C 82% 30.39 in
(1029 mb)
Calm - 10SM
18:56
Mostly Cloudy
46°F / 8°C 39°F / 4°C 76% 30.39 in
(1029 mb)
Calm - 10SM
17:56
Clear
46°F / 8°C 41°F / 5°C 82% 30.36 in
(1028 mb)
NW 6.9 mph
(NW 11 kph)
- 10SM
16:56
Clear
48°F / 9°C 41°F / 5°C 76% 30.36 in
(1028 mb)
Calm - 10SM
15:56
Partly Cloudy
48°F / 9°C 43°F / 6°C 82% 30.36 in
(1028 mb)
S 3.5 mph
(S 6 kph)
- 10SM
14:56
Mostly Cloudy
48°F / 9°C 43°F / 6°C 82% 30.36 in
(1028 mb)
S 5.8 mph
(S 9 kph)
0.00 in
(0.00 mm)
10SM
13:56
Overcast
48°F / 9°C 41°F / 5°C 76% 30.36 in
(1028 mb)
Calm 0.00 in
(0.00 mm)
10SM
12:56
Overcast
Light Rain
48°F / 9°C 41°F / 5°C 76% 30.33 in
(1027 mb)
SE 5.8 mph
(SE 9 kph)
0.00 in
(0.00 mm)
10SM
11:56
Overcast
48°F / 9°C 37°F / 3°C 66% 30.33 in
(1027 mb)
Calm - 10SM
10:56
Mostly Cloudy
46°F / 8°C 37°F / 3°C 71% 30.33 in
(1027 mb)
Calm - 10SM
09:56
Overcast
45°F / 7°C 37°F / 3°C 76% 30.33 in
(1027 mb)
Calm - 10SM
08:56
Partly Cloudy
41°F / 5°C 37°F / 3°C 87% 30.3 in
(1026 mb)
WNW 3.5 mph
(WNW 6 kph)
- 10SM
08:23
Overcast
43°F / 6°C 37°F / 3°C 81% 30.3 in
(1026 mb)
NW 3.5 mph
(NW 6 kph)
- 9SM
07:56
Overcast
41°F / 5°C 39°F / 4°C 93% 30.27 in
(1025 mb)
Calm - 10SM
06:56
Overcast
41°F / 5°C 37°F / 3°C 87% 30.27 in
(1025 mb)
Calm 0.00 in
(0.00 mm)
10SM
05:56
Overcast
41°F / 5°C 37°F / 3°C 87% 30.27 in
(1025 mb)
Calm 0.00 in
(0.00 mm)
10SM
04:56
Overcast
39°F / 4°C 37°F / 3°C 93% 30.3 in
(1026 mb)
Calm - 10SM
03:56
Overcast
39°F / 4°C 37°F / 3°C 93% 30.3 in
(1026 mb)
SE 4.6 mph
(SE 7 kph)
- 10SM
02:56
Overcast
39°F / 4°C 37°F / 3°C 93% 30.3 in
(1026 mb)
SE 4.6 mph
(SE 7 kph)
- 10SM
01:56
Overcast
39°F / 4°C 37°F / 3°C 93% 30.27 in
(1025 mb)
SE 3.5 mph
(SE 6 kph)
- 10SM
00:56
Overcast
39°F / 4°C 37°F / 3°C 93% 30.27 in
(1025 mb)
S 3.5 mph
(S 6 kph)
- 10SM
Time Weather Temperature Dewpoint Humidity Pressure Winds Precip Visibility


Weather for websites

WeatherForYou.com, LLC is not responsible for any damages or problems caused by this service. Current weather conditions are obtained from the closest station including government and personal stations which may have varying degrees of accuracy. Weather forecasts are derived from the NOAA NDFD. Like all things, this site belongs to Jesus Christ... He just trusts me to maintain it. If you have any questions or comments email webmaster@weatherforyou.com

Copyright © 2015, WeatherForYou.com LLC. All rights reserved.